Location: Vancouver
(49.2500°N, 123.1330°W)
Time: 09:26:17
(UTC-08:00)

A-11 Canister half - Visible Passes

Search period start: 06 March 2015 00:00
Search period end: 16 March 2015 01:00
Orbit: 1527 x 1683 km, 47.3° (Epoch: 05 March)

Date Brightness Start Highest point End Pass type
(mag) Time Alt. Az. Time Alt. Az. Time Alt. Az.
06 Mar 9.4 02:34:49 47° ESE 02:34:49 47° ESE 02:40:56 10° ESE visible
06 Mar 9.3 04:33:09 34° WSW 04:35:52 41° SW 04:44:15 10° SSE visible
06 Mar 10.4 19:52:30 10° SSE 19:55:07 14° SE 19:55:07 14° SE visible
06 Mar 10.6 21:51:47 10° SW 21:53:30 16° SSW 21:53:30 16° SSW visible
07 Mar 9.9 02:14:47 34° ESE 02:14:47 34° ESE 02:19:25 10° ESE visible
07 Mar 9.2 04:13:07 41° SW 04:14:23 42° SW 04:22:51 10° SSE visible
07 Mar 10.4 06:13:25 10° W 06:17:31 13° SW 06:21:05 10° SSW visible
07 Mar 10.3 19:31:27 10° SSE 19:35:53 15° SE 19:35:53 15° SE visible
07 Mar 10.1 21:30:19 10° SSW 21:34:17 26° SSW 21:34:17 26° SSW visible
08 Mar 10.3 01:54:52 24° ESE 01:54:52 24° ESE 01:57:55 10° ESE visible
08 Mar 9.2 04:53:13 44° SSW 04:53:13 44° SSW 05:01:27 10° SSE visible
08 Mar 10.3 06:51:34 10° W 06:56:05 14° SW 07:00:09 10° SSW visible
08 Mar 10.3 20:10:27 10° SSE 20:14:32 14° SE 20:16:37 13° ESE visible
08 Mar 9.7 22:08:52 10° SSW 22:15:00 35° S 22:15:00 35° S visible
09 Mar 10.9 00:12:29 10° WSW 00:13:25 14° WSW 00:13:25 14° WSW visible
09 Mar 10.7 02:35:05 15° ESE 02:35:05 15° ESE 02:36:24 10° ESE visible
09 Mar 9.4 04:33:26 40° S 04:33:26 40° S 04:40:02 10° SE visible
09 Mar 10.2 06:31:48 14° WSW 06:34:38 15° SW 06:39:10 10° SSW visible
09 Mar 10.4 19:49:32 10° SSE 19:53:05 13° SE 19:57:13 10° E visible
09 Mar 9.4 21:47:25 10° SSW 21:55:40 41° SSE 21:55:40 41° SSE visible
09 Mar 10.4 23:50:56 10° WSW 23:54:03 24° WSW 23:54:03 24° WSW visible
10 Mar 9.8 04:13:47 32° SSE 04:13:47 32° SSE 04:18:37 10° SE visible
10 Mar 10.1 06:12:09 16° WSW 06:13:12 16° SW 06:18:08 10° SSW visible
10 Mar 9.3 21:25:59 10° SSW 21:34:50 40° SE 21:36:14 38° SE visible
10 Mar 9.8 23:29:22 10° WSW 23:34:36 37° WSW 23:34:36 37° WSW visible
11 Mar11.301:55:53ESE01:55:53ESE01:32:59Wvisible
11 Mar 10.2 03:54:16 22° SSE 03:54:16 22° SSE 03:57:11 10° SE visible
11 Mar 10.1 05:52:39 17° SW 05:52:39 17° SW 05:57:03 10° SSW visible
11 Mar 9.5 21:04:33 10° SSW 21:13:20 38° SE 21:16:40 31° ESE visible
11 Mar 9.3 23:07:49 10° WSW 23:15:03 53° SW 23:15:03 53° SW visible
12 Mar 10.9 01:12:46 10° W 01:13:25 12° W 01:13:25 12° W visible
12 Mar 10.7 03:34:51 13° SE 03:34:51 13° SE 03:35:46 10° SE visible
12 Mar 10.3 05:33:14 16° SSW 05:33:14 16° SSW 05:35:56 10° SSW visible
12 Mar 9.5 20:43:08 10° SSW 20:51:50 37° SE 20:57:00 23° E visible
12 Mar 8.9 22:46:15 10° WSW 22:55:21 68° S 22:55:21 68° S visible
13 Mar 10.5 00:51:11 10° W 00:53:42 21° W 00:53:42 21° W visible
13 Mar 10.5 05:13:54 12° SSW 05:13:54 12° SSW 05:14:46 10° S visible
13 Mar 9.6 20:21:43 10° SSW 20:30:20 36° SE 20:37:11 16° E visible
13 Mar 8.9 22:24:42 10° WSW 22:34:29 69° SSE 22:35:31 65° SE visible
14 Mar 10.1 00:29:37 10° W 00:33:52 30° W 00:33:52 30° W visible
14 Mar 9.7 20:00:19 10° SSW 20:08:50 34° SE 20:17:15 10° E visible
14 Mar 8.9 22:03:09 10° WSW 22:12:57 68° SSE 22:15:35 51° ESE visible
15 Mar 9.7 00:08:02 10° W 00:13:55 42° W 00:13:55 42° W visible
15 Mar 9.8 19:38:56 10° SSW 19:47:20 33° SE 19:55:42 10° E visible
15 Mar 9.0 21:41:37 10° WSW 21:51:25 67° SSE 21:55:32 38° E visible
15 Mar 9.3 23:46:27 10° W 23:53:52 57° WSW 23:53:52 57° WSW visible
